Weather History for Falfurrias, TX

Change the Weather History Date:

Sunday, December 29, 2013

  Actual Average (KNQI) Record (KNQI)
Temperature  
Mean Temperature 57 °F -  
Max Temperature 69 °F 66 °F 82 °F (1996)
Min Temperature 45 °F 44 °F 34 °F (1997)
Degree Days  
Heating Degree Days 8    
Growing Degree Days 7 (Base 50)    
Moisture  
Dew Point 49 °F    
Average Humidity 76    
Maximum Humidity 92    
Minimum Humidity 54    
Precipitation  
Precipitation 0.00 in - - ()
Sea Level Pressure  
Sea Level Pressure 30.04 in    
Wind  
Wind Speed 2 mph (ESE)    
Max Wind Speed 10 mph    
Max Gust Speed -    
Visibility 10 miles    
Events      
Averages and records for this station are not official NWS values.
T = Trace of Precipitation, MM = Missing Value Source: NWS Daily Summary

Daily Weather History Graph

Daily Weather History Graph

Search for Another Location

Airport:

Trip Planner

Search our weather history database for the weather conditions in past years. The results will help you decide how hot, cold, wet, or windy it might be!

Date:

Astronomy

Dec. 29, 2013 Rise Set
Actual Time 7:21 AM CST 5:48 PM CST
Civil Twilight 6:55 AM CST 6:13 PM CST
Nautical Twilight 6:26 AM CST 6:42 PM CST
Astronomical Twilight 5:58 AM CST 7:11 PM CST
Moon 4:13 AM CST (12/29) 3:21 PM CST (12/29)
Length of Visible Light 11h 17m
Length of Day
10h 26m
Waning Crescent, 11% of the Moon is Illuminated
Dec 29
Waning Crescent
Jan 1
New
Jan 7
First Quarter
Jan 15
Full
Jan 23
Last Quarter

Hourly Weather History & Observations

Time (CST) Temp. Dew Point Humidity Pressure Visibility Wind Dir Wind Speed Gust Speed Precip Events Conditions
12:15 AM 49.1 °F 42.8 °F 79% 30.06 in 10.0 mi SE 3.5 mph - N/A   Clear
12:35 AM 49.1 °F 42.8 °F 79% 30.05 in 10.0 mi Calm Calm - N/A   Clear
12:55 AM 49.3 °F 42.8 °F 78% 30.04 in 10.0 mi Calm Calm - N/A   Clear
1:15 AM 49.1 °F 42.8 °F 79% 30.04 in 10.0 mi Calm Calm - N/A   Clear
1:35 AM 47.8 °F 42.8 °F 83% 30.03 in 10.0 mi SSE 4.6 mph - N/A   Clear
1:55 AM 47.3 °F 43.2 °F 86% 30.03 in 10.0 mi SSE 4.6 mph - N/A   Clear
2:15 AM 47.3 °F 42.8 °F 84% 30.03 in 10.0 mi Calm Calm - N/A   Clear
2:35 AM 47.3 °F 42.6 °F 84% 30.02 in 10.0 mi Calm Calm - N/A   Clear
2:55 AM 46.6 °F 42.6 °F 86% 30.02 in 10.0 mi South 3.5 mph - N/A   Clear
3:15 AM 46.0 °F 42.4 °F 87% 30.02 in 10.0 mi Calm Calm - N/A   Mostly Cloudy
3:35 AM 46.4 °F 43.0 °F 88% 30.02 in 10.0 mi Calm Calm - N/A   Overcast
3:55 AM 46.8 °F 43.5 °F 88% 30.02 in 10.0 mi Calm Calm - N/A   Overcast
4:15 AM 46.6 °F 43.2 °F 88% 30.01 in 10.0 mi Calm Calm - N/A   Mostly Cloudy
4:35 AM 46.0 °F 43.3 °F 90% 30.01 in 10.0 mi Calm Calm - N/A   Scattered Clouds
4:55 AM 46.2 °F 43.5 °F 90% 30.00 in 10.0 mi Calm Calm - N/A   Mostly Cloudy
5:15 AM 45.7 °F 43.2 °F 91% 30.01 in 10.0 mi Calm Calm - N/A   Overcast
5:35 AM 46.9 °F 44.6 °F 92% 30.01 in 10.0 mi Calm Calm - N/A   Overcast
5:55 AM 47.3 °F 44.6 °F 90% 30.01 in 10.0 mi Calm Calm - N/A   Overcast
6:15 AM 47.3 °F 44.6 °F 90% 30.01 in 10.0 mi Calm Calm - N/A   Mostly Cloudy
6:35 AM 47.7 °F 45.1 °F 91% 30.02 in 10.0 mi Calm Calm - N/A   Overcast
6:55 AM 48.2 °F 45.5 °F 90% 30.02 in 10.0 mi Calm Calm - N/A   Mostly Cloudy
7:15 AM 47.5 °F 45.1 °F 92% 30.02 in 10.0 mi Calm Calm - N/A   Overcast
7:35 AM 48.2 °F 45.5 °F 90% 30.03 in 10.0 mi Calm Calm - N/A   Overcast
7:55 AM 48.2 °F 45.7 °F 91% 30.03 in 10.0 mi Calm Calm - N/A   Mostly Cloudy
8:15 AM 47.7 °F 45.3 °F 92% 30.04 in 10.0 mi Calm Calm - N/A   Scattered Clouds
8:35 AM 48.4 °F 45.7 °F 90% 30.05 in 10.0 mi Calm Calm - N/A   Mostly Cloudy
8:55 AM 49.8 °F 46.4 °F 88% 30.06 in 10.0 mi Calm Calm - N/A   Overcast
9:15 AM 51.8 °F 46.8 °F 83% 30.06 in 10.0 mi Calm Calm - N/A   Overcast
9:35 AM 53.4 °F 46.6 °F 78% 30.06 in 10.0 mi Calm Calm - N/A   Overcast
9:55 AM 54.3 °F 47.3 °F 77% 30.07 in 10.0 mi Calm Calm - N/A   Overcast
10:15 AM 55.6 °F 47.5 °F 74% 30.07 in 10.0 mi Calm Calm - N/A   Overcast
10:35 AM 57.4 °F 49.3 °F 74% 30.07 in 10.0 mi Calm Calm - N/A   Overcast
10:55 AM 59.7 °F 48.2 °F 66% 30.07 in 10.0 mi Calm Calm - N/A   Mostly Cloudy
11:15 AM 62.4 °F 47.8 °F 59% 30.06 in 10.0 mi SSE 3.5 mph - N/A   Clear
11:35 AM 63.5 °F 48.4 °F 58% 30.06 in 10.0 mi SE 3.5 mph - N/A   Clear
11:55 AM 63.9 °F 48.6 °F 57% 30.06 in 10.0 mi Calm Calm - N/A   Mostly Cloudy
12:15 PM 64.8 °F 49.1 °F 57% 30.05 in 10.0 mi SSE 3.5 mph - N/A   Overcast
12:35 PM 66.0 °F 48.9 °F 54% 30.04 in 10.0 mi Calm Calm - N/A   Overcast
12:55 PM 67.1 °F 51.6 °F 57% 30.03 in 10.0 mi SSE 6.9 mph - N/A   Overcast
1:15 PM 68.4 °F 52.5 °F 57% 30.01 in 10.0 mi SSE 6.9 mph - N/A   Scattered Clouds
1:35 PM 66.7 °F 52.9 °F 61% 30.00 in 10.0 mi SE 5.8 mph - N/A   Scattered Clouds
1:55 PM 68.9 °F 53.6 °F 58% 29.99 in 10.0 mi SSE 10.4 mph - N/A   Mostly Cloudy
2:15 PM 69.8 °F 53.8 °F 57% 29.98 in 10.0 mi ESE 8.1 mph - N/A   Overcast
2:35 PM 68.0 °F 53.8 °F 60% 29.98 in 10.0 mi SE 5.8 mph - N/A   Overcast
2:55 PM 68.0 °F 54.3 °F 62% 29.99 in 10.0 mi SSE 9.2 mph - N/A   Mostly Cloudy
3:15 PM 68.0 °F 54.5 °F 62% 29.99 in 10.0 mi SE 6.9 mph - N/A   Overcast
3:35 PM 68.2 °F 54.5 °F 62% 29.99 in 10.0 mi ESE 3.5 mph - N/A   Overcast
3:55 PM 68.0 °F 54.9 °F 63% 29.98 in 10.0 mi SSE 6.9 mph - N/A   Overcast
4:15 PM 67.8 °F 55.2 °F 64% 29.98 in 10.0 mi SE 5.8 mph - N/A   Overcast
4:35 PM 67.6 °F 55.2 °F 64% 29.98 in 10.0 mi ESE 6.9 mph - N/A   Overcast
4:55 PM 67.5 °F 55.4 °F 65% 29.98 in 10.0 mi ESE 5.8 mph - N/A   Overcast
5:15 PM 66.2 °F 53.4 °F 63% 29.99 in 10.0 mi East 8.1 mph - N/A   Overcast
5:35 PM 65.7 °F 53.6 °F 65% 30.00 in 10.0 mi East 8.1 mph - N/A   Mostly Cloudy
5:55 PM 64.6 °F 53.6 °F 68% 30.01 in 10.0 mi East 3.5 mph - N/A   Scattered Clouds
6:15 PM 64.4 °F 54.0 °F 69% 30.03 in 10.0 mi ENE 4.6 mph - N/A   Mostly Cloudy
6:35 PM 63.5 °F 53.8 °F 71% 30.04 in 10.0 mi ENE 6.9 mph - N/A   Overcast
6:55 PM 62.6 °F 54.1 °F 74% 30.06 in 10.0 mi ENE 3.5 mph - N/A   Overcast
7:15 PM 62.6 °F 54.5 °F 75% 30.05 in 10.0 mi East 3.5 mph - N/A   Overcast
7:35 PM 62.6 °F 54.7 °F 75% 30.06 in 10.0 mi ENE 3.5 mph - N/A   Overcast
7:55 PM 61.9 °F 54.5 °F 77% 30.07 in 10.0 mi Calm Calm - N/A   Mostly Cloudy
8:15 PM 61.7 °F 54.5 °F 77% 30.08 in 10.0 mi NE 3.5 mph - N/A   Mostly Cloudy
8:35 PM 61.7 °F 54.9 °F 78% 30.09 in 10.0 mi Calm Calm - N/A   Overcast
8:55 PM 61.9 °F 54.5 °F 77% 30.10 in 10.0 mi NE 4.6 mph - N/A   Overcast
9:15 PM 61.7 °F 54.5 °F 77% 30.09 in 10.0 mi NE 3.5 mph - N/A   Mostly Cloudy
9:35 PM 61.3 °F 54.1 °F 77% 30.10 in 10.0 mi ENE 5.8 mph - N/A   Scattered Clouds
9:55 PM 61.3 °F 54.1 °F 77% 30.10 in 10.0 mi NE 4.6 mph - N/A   Mostly Cloudy
10:15 PM 61.2 °F 53.8 °F 77% 30.10 in 10.0 mi NE 3.5 mph - N/A   Mostly Cloudy
10:35 PM 60.8 °F 54.0 °F 78% 30.11 in 10.0 mi Calm Calm - N/A   Scattered Clouds
10:55 PM 60.6 °F 54.0 °F 79% 30.11 in 10.0 mi Calm Calm - N/A   Scattered Clouds
11:15 PM 60.3 °F 54.5 °F 81% 30.11 in 10.0 mi North 3.5 mph - N/A   Scattered Clouds
11:35 PM 60.4 °F 54.5 °F 81% 30.11 in 10.0 mi NNW 4.6 mph - N/A   Mostly Cloudy
11:55 PM 60.4 °F 54.7 °F 81% 30.10 in 10.0 mi NNW 8.1 mph - N/A   Mostly Cloudy